Location: Newark
(48.5156°N, 1.8989°W)
Time: 03:23:37
(UTC+00:00)

Transit 4A - Pass Details

Date: 26 November 2019
Orbit: 870 x 975 km, 66.8° (Epoch: 09 December)

Event Time Altitude Azimuth Distance (km) Brightness Sun altitude
Exits shadow 02:57:48 17° 60° (ENE) 2,101 10.2 -44.3°
Drops below altitude 10° 02:59:44 10° 77° (ENE) 2,536 10.8 -44.0°
Sets 03:02:49 0° 93° (E) 3,462 11.6 -43.5°
